Home > Weather > Wörgl > Past weeks

Flag for Austria Past Weather in Wörgl, Tyrol, Austria — Yesterday and Last 2 Weeks

Now
52 °F

Cool.


Feels Like: 52 °F
Forecast: 54 / 82 °F
Wind: No wind

Location: Kufstein

Current Time: May 26, 2016 at 8:54:26 AM

Latest Report: May 26, 2016 at 8:00 AM


Visibility: N/A

Pressure: 30.06 "Hg (28.26 "Hg at 514m altitude)

Humidity: 80%

Dew Point: 46 °F

Location of WörglLocation

Past Weather in Wörgl — Graph

°F

Wörgl Temperature Yesterday

Maximum temperature yesterday: 69 °F (at 5:00 PM)
Minimum temperature yesterday: 46 °F (at 4:00 AM)
Average temperature yesterday: 57 °F

High & Low Weather Summary for the Past Weeks

 TemperatureHumidityPressure
High87 °F (May 22, 4:00 PM)97% (May 14, 1:00 AM)30.23 "Hg (May 14, 1:00 AM)
Low41 °F (May 16, 6:00 AM)21% (May 22, 7:00 PM)29.38 "Hg (May 12, 11:00 AM)
Average53 °F77%29.90 "Hg
* Reported May 11 7:00 AM — May 26 7:00 AM, Wörgl, Weather by CustomWeather, © 2016

Note: Actual official high and low records may vary slightly from our data, if they occured in-between our weather recording intervals... More about our weather records

Advertising

Wörgl Weather History for the Previous 24 Hours

Scroll right to see more
 ConditionsComfort  
Time TempWeatherWind HumidityBarometerVisibility
7:00 AM
Thu, May 26
50 °FCool.No wind87%30.06 "HgN/A
6:00 AM48 °FCool.No wind90%30.06 "HgN/A
5:00 AM49 °FCool.No wind90%30.06 "HgN/A
4:00 AM48 °FCool.1 mph90%30.05 "HgN/A
3:00 AM48 °FCool.No wind92%30.05 "HgN/A
2:00 AM50 °FCool.No wind89%30.04 "HgN/A
1:00 AM52 °FCool.No wind81%30.03 "HgN/A
12:00 AM54 °FCool.No wind77%30.01 "HgN/A
11:00 PM
Wed, May 25
56 °FCool.1 mph71%29.98 "HgN/A
10:00 PM59 °FCool.2 mph68%29.96 "HgN/A
9:00 PM62 °FCool.1 mph74%29.93 "HgN/A
8:00 PM65 °FMild.2 mph65%29.90 "HgN/A
7:00 PM66 °FMild.3 mph57%29.89 "HgN/A
6:00 PM68 °FMild.3 mph57%29.88 "HgN/A
5:00 PM69 °FMild.5 mph56%29.86 "HgN/A
4:00 PM69 °FMild.3 mph58%29.86 "HgN/A
3:00 PM68 °FMild.3 mph55%29.87 "HgN/A
2:00 PM66 °FMild.3 mph53%29.88 "HgN/A
1:00 PM63 °FMild.1 mph57%29.91 "HgN/A
12:00 PM61 °FCool.2 mph62%29.93 "HgN/A
11:00 AM58 °FCool.2 mph69%29.96 "HgN/A
10:00 AM55 °FCool.3 mph72%29.97 "HgN/A
9:00 AM52 °FCool.1 mph83%29.99 "HgN/A
8:00 AM49 °FCool.1 mph89%30.01 "HgN/A
Weather by CustomWeather, © 2016

See weather overviewHow to use our weather pages